Location: Voyageurs National Park
(48.5020°N, 92.9292°W)
Time: 06:16:43
(UTC-06:00)

Amateur Radio Satellites - All Passes

Search period start: 21 November 2017 05:46
Search period end: 22 November 2017 05:46
Location: Voyageurs National Park, 48.5020°N, 92.9292°W

Satellite Date Start Highest point End Downlink Frequencies (MHz)
Time Altitude Azimuth
AO-85 21 Nov 05:47:09 05:50:52 37° 318° (NW) 05:54:47 145.980
XW-2C 21 Nov 05:47:36 05:50:58 29° 96° (E) 05:54:19 145.795 - 145.815
LilacSat-2 21 Nov 05:49:21 05:52:51 33° 97° (E) 05:56:20 437.200
CUTE-I 21 Nov 05:51:25 05:56:06 30° 94° (E) 06:00:45 437.470
XW-2F 21 Nov 05:58:18 06:01:50 35° 97° (E) 06:05:20 145.980 - 146.000
ITAMSAT 1 21 Nov 06:01:07 06:04:09 16° 306° (NW) 06:07:09 435.822/435.867
PCSat 21 Nov 06:15:27 06:17:57 13° 17° (NNE) 06:20:26 145.827
SEEDS 21 Nov 06:21:04 06:22:41 12° 87° (E) 06:24:18 437.485
KAITUO 1B 21 Nov 06:26:15 06:29:58 58° 100° (E) 06:33:41 145.475/437.950
FO-29 21 Nov 06:36:16 06:42:17 33° 57° (ENE) 06:48:49 435.910
BEESAT 2 21 Nov 06:37:34 06:39:23 13° 337° (NNW) 06:41:12 435.950
STARS 21 Nov 06:40:19 06:42:13 12° 272° (W) 06:44:07 437.465
DOVE 4 21 Nov 06:40:35 06:44:50 25° 299° (WNW) 06:48:55 437.250
XW-2D 21 Nov 06:40:58 06:44:46 67° 285° (WNW) 06:48:33 145.860 - 145.880
CUBEBUG 2 21 Nov 06:44:27 06:47:28 19° 91° (E) 06:50:26 437.445
AO-7 21 Nov 06:52:40 06:57:56 19° 321° (NW) 07:03:14 .
XW-2B 21 Nov 06:55:54 06:59:34 47° 288° (WNW) 07:03:14 145.730 - 145.750
HO-68 21 Nov 07:00:18 07:07:15 48° 99° (E) 07:14:07 435.675
STRAND 1 21 Nov 07:00:26 07:05:33 65° 258° (WSW) 07:10:42 437.568
XW-2A 21 Nov 07:02:09 07:03:39 12° 90° (E) 07:05:09 145.665 - 145.685
RS-15 21 Nov 07:02:17 07:04:12 11° 271° (W) 07:06:08 29.354- 29.394
NUDT-PHONESAT 21 Nov 07:11:11 07:14:43 44° 289° (WNW) 07:18:15 437.300
SO-50 21 Nov 07:17:44 07:21:42 28° 243° (WSW) 07:25:43 436.795
YUBILEINY 21 Nov 07:21:22 07:29:22 38° 294° (WNW) 07:37:28 435.215
XW-2C 21 Nov 07:21:53 07:25:03 25° 293° (WNW) 07:28:14 145.795 - 145.815
LilacSat-2 21 Nov 07:23:53 07:26:58 23° 294° (WNW) 07:30:03 437.200
CUTE 1.7 + AOD 2 21 Nov 07:24:03 07:28:22 81° 105° (ESE) 07:32:39 437.475
AO-85 21 Nov 07:30:46 07:32:29 12° 342° (NNW) 07:34:15 145.980
CUTE-I 21 Nov 07:31:12 07:36:19 45° 293° (WNW) 07:41:23 437.470
ZACube-1 21 Nov 07:31:47 07:34:43 18° 91° (E) 07:37:39 437.345
XW-2F 21 Nov 07:32:50 07:35:44 21° 295° (WNW) 07:38:40 145.980 - 146.000
UWE-3 21 Nov 07:40:45 07:44:41 40° 98° (E) 07:48:36 435.000/436.395/437.385
SEEDS 21 Nov 07:54:39 07:58:55 79° 284° (WNW) 08:03:09 437.485
PCSat 21 Nov 07:58:09 08:03:04 33° 42° (NE) 08:07:57 145.827
KAITUO 1B 21 Nov 08:01:27 08:03:31 14° 298° (WNW) 08:05:34 145.475/437.950
AAUSAT CUBESAT 2 21 Nov 08:01:29 08:05:38 57° 100° (E) 08:09:45 437.432
FO-29 21 Nov 08:20:07 08:26:48 64° 260° (W) 08:34:18 435.910
CUBEBUG 2 21 Nov 08:20:20 08:24:21 45° 290° (WNW) 08:28:18 437.445
AO-73 21 Nov 08:22:03 08:26:06 52° 100° (E) 08:30:10 145.935
UNISAT 6 21 Nov 08:24:43 08:28:55 38° 68° (ENE) 08:33:03 437.425
TIGRISAT 21 Nov 08:29:04 08:33:15 38° 69° (ENE) 08:37:24 435.000
XW-2A 21 Nov 08:33:22 08:36:37 47° 288° (WNW) 08:39:52 145.665 - 145.685
DELFI C3 21 Nov 08:34:22 08:35:24 11° 87° (E) 08:36:27 145.870
Oscar 11 21 Nov 08:38:23 08:42:39 54° 100° (E) 08:46:54 .
BEESAT 3 21 Nov 08:45:17 08:46:32 11° 21° (NNE) 08:47:45 437.485
HO-68 21 Nov 08:48:15 08:54:54 42° 300° (WNW) 09:01:30 435.675
CUTE 1.7 + AOD 2 21 Nov 09:01:29 09:03:36 14° 301° (WNW) 09:05:42 437.475
ZACube-1 21 Nov 09:07:17 09:11:16 46° 289° (WNW) 09:15:15 437.345
UWE-3 21 Nov 09:17:42 09:20:56 22° 296° (WNW) 09:24:08 435.000/436.395/437.385
PRISM 21 Nov 09:23:17 09:27:18 53° 71° (ENE) 09:31:23 437.425
SEEDS 21 Nov 09:32:51 09:33:51 11° 304° (WNW) 09:34:50 437.485
EO-88 21 Nov 09:35:57 09:38:57 24° 94° (E) 09:41:57 145.990 - 145.960
Max Valier Satellite 21 Nov 09:37:30 09:40:52 34° 97° (E) 09:44:15 145.860
AAUSAT CUBESAT 2 21 Nov 09:37:54 09:40:40 17° 299° (WNW) 09:43:26 437.432
PCSat 21 Nov 09:41:27 09:46:44 54° 242° (WSW) 09:51:59 145.827
DUCHIFAT 1 21 Nov 09:44:26 09:44:43 10° 55° (NE) 09:44:59 145.980
AIST 2D 21 Nov 09:44:45 09:47:35 24° 68° (ENE) 09:50:27 435.315
EO-79 21 Nov 09:49:37 09:51:56 15° 59° (ENE) 09:54:16 145.935-145.965
NANOSAT C BR1 21 Nov 09:52:57 09:55:09 14° 59° (ENE) 09:57:21 145.865
BEESAT 2 21 Nov 09:56:17 09:58:29 14° 26° (NNE) 10:00:39 435.950
AO-73 21 Nov 09:59:11 10:01:59 18° 298° (WNW) 10:04:48 145.935
UNISAT 6 21 Nov 10:01:50 10:05:42 27° 266° (W) 10:09:32 437.425
POLYITAN 1 21 Nov 10:04:07 10:07:09 19° 62° (ENE) 10:10:11 437.675
TIGRISAT 21 Nov 10:06:11 10:10:03 27° 266° (W) 10:13:50 435.000
DELFI C3 21 Nov 10:06:39 10:10:41 78° 285° (WNW) 10:14:40 145.870
FO-29 21 Nov 10:10:32 10:13:31 13° 282° (WNW) 10:16:37 435.910
Oscar 11 21 Nov 10:15:22 10:18:26 19° 298° (WNW) 10:21:28 .
BEESAT 3 21 Nov 10:21:27 10:25:10 36° 43° (NE) 10:28:49 437.485
QB50P2 21 Nov 10:26:28 10:30:17 33° 67° (ENE) 10:34:07 145.880/145.840
HO-68 21 Nov 10:38:40 10:40:47 11° 322° (NW) 10:42:53 435.675
AO-85 21 Nov 10:53:36 10:56:59 20° 32° (NNE) 11:00:33 145.980
PRISM 21 Nov 11:00:12 11:02:53 17° 269° (W) 11:05:36 437.425
Gurwin Techsat 1B 21 Nov 11:01:34 11:02:55 11° 49° (NE) 11:04:16 435.225
EO-88 21 Nov 11:09:25 11:12:36 28° 292° (WNW) 11:15:46 145.990 - 145.960
Max Valier Satellite 21 Nov 11:11:44 11:14:30 21° 295° (WNW) 11:17:16 145.860
DUCHIFAT 1 21 Nov 11:15:24 11:19:36 74° 74° (ENE) 11:23:49 145.980
AIST 2D 21 Nov 11:17:47 11:20:42 25° 265° (W) 11:23:38 435.315
EO-79 21 Nov 11:22:55 11:27:10 74° 257° (WSW) 11:31:26 145.935-145.965
NANOSAT C BR1 21 Nov 11:26:04 11:30:18 77° 257° (WSW) 11:34:32 145.865
ESTCUBE 1 21 Nov 11:27:26 11:31:49 45° 99° (E) 11:36:10 437.505/2401.250
LO-87 21 Nov 11:32:55 11:36:30 76° 104° (ESE) 11:40:01 145.935 - 145.965
BEESAT 2 21 Nov 11:33:05 11:37:05 54° 47° (NE) 11:41:01 435.950
POLYITAN 1 21 Nov 11:38:27 11:42:36 51° 260° (W) 11:46:45 437.675
FALCONSAT 3 21 Nov 11:46:29 11:47:31 11° 179° (S) 11:48:33 435.103
VELOX 1 21 Nov 11:48:38 11:50:53 14° 88° (E) 11:53:08 145.980
BEESAT 3 21 Nov 11:59:09 12:02:37 29° 242° (WSW) 12:06:02 437.485
QB50P2 21 Nov 12:02:28 12:06:07 27° 265° (W) 12:09:45 145.880/145.840
BUGSAT 1 21 Nov 12:07:15 12:11:25 69° 74° (ENE) 12:15:34 437.445
Oscar 19 21 Nov 12:10:01 12:14:51 45° 68° (ENE) 12:19:45 437.125/150
AO-7 21 Nov 12:19:45 12:25:36 22° 43° (NE) 12:31:28 .
AO-85 21 Nov 12:33:24 12:38:01 83° 52° (NE) 12:43:00 145.980
Gurwin Techsat 1B 21 Nov 12:36:34 12:41:46 56° 69° (ENE) 12:46:59 435.225
SPROUT 21 Nov 12:42:58 12:47:14 70° 102° (ESE) 12:51:27 437.525
DUCHIFAT 1 21 Nov 12:53:56 12:55:46 12° 272° (W) 12:57:36 145.980
ESTCUBE 1 21 Nov 13:04:45 13:08:22 24° 297° (WNW) 13:11:58 437.505/2401.250
LO-87 21 Nov 13:08:39 13:09:20 10° 301° (WNW) 13:10:00 145.935 - 145.965
BEESAT 2 21 Nov 13:11:30 13:14:28 20° 246° (WSW) 13:17:23 435.950
UKube-1 21 Nov 13:14:48 13:17:22 15° 90° (E) 13:19:57 .
50 SAT 21 Nov 13:17:03 13:19:41 23° 95° (E) 13:22:18 437.505
M-CUBED/EXP-1 PRIME 21 Nov 13:18:39 13:22:11 53° 65° (ENE) 13:26:03 437.505
O/OREOS (USA 219) 21 Nov 13:20:38 13:25:02 47° 109° (ESE) 13:29:27 437.305
VELOX 1 21 Nov 13:23:24 13:27:52 75° 286° (WNW) 13:32:18 145.980
BUGSAT 1 21 Nov 13:45:10 13:47:12 13° 271° (W) 13:49:15 437.445
Oscar 19 21 Nov 13:50:02 13:54:22 28° 266° (W) 13:58:45 437.125/150
ITAMSAT 1 21 Nov 14:03:13 14:07:55 34° 64° (ENE) 14:12:37 435.822/435.867
DX 1 21 Nov 14:07:58 14:12:23 79° 104° (ESE) 14:16:45 434.975-435.025
AO-7 21 Nov 14:08:49 14:17:02 71° 65° (ENE) 14:25:18 .
NO-84 21 Nov 14:14:57 14:16:10 11° 124° (SE) 14:17:24 435.350 FM
AO-85 21 Nov 14:14:59 14:17:58 17° 248° (WSW) 14:21:04 145.980
BEESAT 21 Nov 14:17:01 14:18:12 11° 86° (E) 14:19:23 436.000
Gurwin Techsat 1B 21 Nov 14:17:51 14:22:03 23° 268° (W) 14:26:17 435.225
SPROUT 21 Nov 14:20:09 14:22:36 15° 301° (WNW) 14:25:02 437.525
ITUPSAT 1 21 Nov 14:25:58 14:28:15 13° 88° (E) 14:30:31 437.325
MOZHAYETS 4 21 Nov 14:34:38 14:38:06 21° 92° (E) 14:41:35
DOVE 4 21 Nov 14:36:08 14:38:49 14° 54° (NE) 14:41:33 437.250
50 SAT 21 Nov 14:49:06 14:51:44 23° 293° (WNW) 14:54:20 437.505
UKube-1 21 Nov 14:49:31 14:53:49 63° 288° (WNW) 14:58:05 .
M-CUBED/EXP-1 PRIME 21 Nov 14:54:56 14:57:00 15° 265° (W) 14:59:11 437.505
O/OREOS (USA 219) 21 Nov 15:00:46 15:04:40 26° 309° (NW) 15:08:33 437.305
VELOX 1 21 Nov 15:02:11 15:03:31 11° 305° (NW) 15:04:50 145.980
YUBILEINY 21 Nov 15:28:55 15:36:59 37° 65° (ENE) 15:44:58 435.215
CUTE-I 21 Nov 15:40:30 15:42:56 13° 52° (NE) 15:45:23 437.470
ITAMSAT 1 21 Nov 15:42:27 15:47:19 39° 262° (W) 15:52:13 435.822/435.867
DX 1 21 Nov 15:45:33 15:47:59 15° 302° (WNW) 15:50:24 434.975-435.025
NO-84 21 Nov 15:48:59 15:52:42 64° 144° (SE) 15:56:43 435.350 FM
HO-68 21 Nov 15:49:45 15:53:17 14° 42° (NE) 15:56:50 435.675
BEESAT 21 Nov 15:51:57 15:56:44 82° 103° (ESE) 16:01:30 436.000
XW-2D 21 Nov 15:54:33 15:55:24 11° 59° (ENE) 15:56:16 145.860 - 145.880
ITUPSAT 1 21 Nov 16:01:55 16:06:42 84° 288° (WNW) 16:11:28 437.325
AO-7 21 Nov 16:03:22 16:10:27 31° 266° (W) 16:17:36 .
XW-2B 21 Nov 16:08:06 16:10:07 14° 61° (ENE) 16:12:08 145.730 - 145.750
DOVE 4 21 Nov 16:10:31 16:15:36 77° 73° (ENE) 16:20:53 437.250
MOZHAYETS 4 21 Nov 16:11:08 16:15:31 49° 290° (WNW) 16:19:55
NUDT-PHONESAT 21 Nov 16:21:26 16:23:20 14° 61° (ENE) 16:25:13 437.300
CUBESAT XI-V 21 Nov 16:23:22 16:28:01 60° 100° (E) 16:32:40 437.345
KKS-1 21 Nov 16:24:28 16:27:08 15° 90° (E) 16:29:46 437.445
XW-2C 21 Nov 16:32:27 16:35:31 25° 67° (ENE) 16:38:37 145.795 - 145.815
LilacSat-2 21 Nov 16:34:46 16:38:00 28° 67° (ENE) 16:41:15 437.200
XW-2F 21 Nov 16:42:34 16:45:48 29° 68° (ENE) 16:49:04 145.980 - 146.000
CUTE 1.7 + AOD 2 21 Nov 16:47:23 16:48:56 12° 57° (ENE) 16:50:30 437.475
STARS 21 Nov 16:48:48 16:49:56 11° 87° (E) 16:51:04 437.465
RS-15 21 Nov 17:02:13 17:10:45 23° 98° (E) 17:19:14 29.354- 29.394
KAITUO 1B 21 Nov 17:09:21 17:12:52 45° 71° (ENE) 17:16:26 145.475/437.950
SEEDS 21 Nov 17:16:12 17:18:28 14° 59° (ENE) 17:20:43 437.485
CUTE-I 21 Nov 17:16:43 17:22:02 68° 71° (ENE) 17:27:24 437.470
XW-2D 21 Nov 17:25:14 17:28:58 83° 256° (WSW) 17:32:45 145.860 - 145.880
YUBILEINY 21 Nov 17:25:38 17:34:18 62° 269° (W) 17:42:56 435.215
NO-84 21 Nov 17:26:30 17:30:16 41° 345° (NNW) 17:34:14 435.350 FM
BEESAT 21 Nov 17:31:04 17:33:54 16° 303° (WNW) 17:36:43 436.000
HO-68 21 Nov 17:32:34 17:39:29 53° 64° (ENE) 17:46:27 435.675
XW-2B 21 Nov 17:40:10 17:43:51 58° 260° (W) 17:47:34 145.730 - 145.750
ITUPSAT 1 21 Nov 17:41:28 17:43:48 14° 305° (NW) 17:46:06 437.325
CUBEBUG 2 21 Nov 17:45:33 17:49:22 27° 66° (ENE) 17:53:07 437.445
DOVE 4 21 Nov 17:50:37 17:53:53 17° 273° (W) 17:57:13 437.250
NUDT-PHONESAT 21 Nov 17:53:08 17:56:44 57° 259° (W) 18:00:22 437.300
KKS-1 21 Nov 17:59:41 18:04:08 66° 288° (WNW) 18:08:33 437.445
CUBESAT XI-V 21 Nov 18:01:36 18:04:58 20° 299° (WNW) 18:08:21 437.345
XW-2C 21 Nov 18:06:20 18:09:37 29° 265° (W) 18:12:56 145.795 - 145.815
LilacSat-2 21 Nov 18:09:05 18:12:15 26° 265° (W) 18:15:27 437.200
XW-2F 21 Nov 18:16:52 18:19:55 24° 266° (W) 18:23:00 145.980 - 146.000
CUTE 1.7 + AOD 2 21 Nov 18:19:53 18:24:05 89° 94° (E) 18:28:21 437.475
STARS 21 Nov 18:22:30 18:26:56 89° 290° (WNW) 18:31:19 437.465
ZACube-1 21 Nov 18:30:54 18:34:22 24° 65° (ENE) 18:37:47 437.345
UWE-3 21 Nov 18:40:46 18:45:04 53° 72° (ENE) 18:49:17 435.000/436.395/437.385
KAITUO 1B 21 Nov 18:44:50 18:47:06 16° 269° (W) 18:49:23 145.475/437.950
SEEDS 21 Nov 18:49:26 18:53:36 72° 258° (WSW) 18:57:48 437.485
AAUSAT CUBESAT 2 21 Nov 18:54:40 18:58:44 59° 73° (ENE) 19:02:50 437.432
CUTE-I 21 Nov 18:58:44 19:02:35 20° 270° (W) 19:06:27 437.470
NO-84 21 Nov 19:04:34 19:08:20 33° 6° (N) 19:12:13 435.350 FM
STRAND 1 21 Nov 19:07:14 19:11:51 32° 95° (E) 19:16:24 437.568
XW-2A 21 Nov 19:07:21 19:10:40 83° 255° (WSW) 19:14:02 145.665 - 145.685
RS-15 21 Nov 19:08:55 19:21:10 75° 122° (ESE) 19:33:20 29.354- 29.394
AO-73 21 Nov 19:20:40 19:24:54 65° 73° (ENE) 19:29:05 145.935
HO-68 21 Nov 19:20:52 19:27:26 37° 264° (W) 19:34:03 435.675
CUBEBUG 2 21 Nov 19:21:37 19:25:52 37° 263° (W) 19:30:01 437.445
DELFI C3 21 Nov 19:23:16 19:24:43 12° 58° (ENE) 19:26:10 145.870
YUBILEINY 21 Nov 19:25:22 19:29:09 14° 291° (WNW) 19:32:57 435.215
FO-29 21 Nov 19:26:15 19:32:07 22° 85° (E) 19:37:45 435.910
Oscar 11 21 Nov 19:36:24 19:40:39 65° 73° (ENE) 19:44:56 .
KKS-1 21 Nov 19:39:31 19:39:49 10° 307° (NW) 19:40:07 437.445
CUTE 1.7 + AOD 2 21 Nov 20:00:12 20:00:33 10° 274° (W) 20:00:55 437.475
STARS 21 Nov 20:00:36 20:02:35 13° 304° (NW) 20:04:34 437.465
ZACube-1 21 Nov 20:06:26 20:10:29 39° 262° (W) 20:14:28 437.345
EO-88 21 Nov 20:17:19 20:19:56 19° 64° (ENE) 20:22:33 145.990 - 145.960
UWE-3 21 Nov 20:18:45 20:21:49 18° 269° (W) 20:24:51 435.000/436.395/437.385
ISS 21 Nov 20:18:59 20:20:36 13° 136° (SE) 20:22:14 437.550
Max Valier Satellite 21 Nov 20:19:46 20:22:53 27° 68° (ENE) 20:26:00 145.860
AAUSAT CUBESAT 2 21 Nov 20:32:11 20:34:34 15° 271° (W) 20:36:59 437.432
NO-84 21 Nov 20:42:02 20:46:14 64° 26° (NNE) 20:50:29 435.350 FM
STRAND 1 21 Nov 20:46:21 20:51:06 39° 294° (WNW) 20:55:47 437.568
DELFI C3 21 Nov 20:54:51 20:58:49 84° 254° (WSW) 21:02:51 145.870
AO-73 21 Nov 20:59:14 21:01:33 14° 271° (W) 21:03:51 145.935
nSIGHT-1 21 Nov 21:07:32 21:10:31 35° 147° (SSE) 21:13:29 .
FO-29 21 Nov 21:10:10 21:18:07 90° 359° (N) 21:25:40 435.910
Oscar 11 21 Nov 21:14:51 21:17:14 15° 271° (W) 21:19:38 .
RS-15 21 Nov 21:22:45 21:34:39 50° 329° (NNW) 21:46:21 29.354- 29.394
SO-50 21 Nov 21:34:54 21:39:00 36° 119° (ESE) 21:43:09 436.795
O/OREOS (USA 219) 21 Nov 21:47:53 21:51:43 25° 50° (NE) 21:55:30 437.305
UNISAT 6 21 Nov 21:48:44 21:52:54 47° 99° (E) 21:57:00 437.425
EO-88 21 Nov 21:49:58 21:53:20 37° 263° (W) 21:56:44 145.990 - 145.960
TIGRISAT 21 Nov 21:52:55 21:57:04 47° 99° (E) 22:01:09 435.000
ISS 21 Nov 21:53:19 21:56:34 65° 153° (SSE) 21:59:50 437.550
Max Valier Satellite 21 Nov 21:53:37 21:56:41 25° 265° (W) 21:59:45 145.860
SPROUT 21 Nov 22:06:55 22:08:25 12° 56° (ENE) 22:09:55 437.525
LO-87 21 Nov 22:11:53 22:15:24 52° 73° (ENE) 22:18:55 145.935 - 145.965
NO-84 21 Nov 22:19:37 22:23:26 32° 225° (SW) 22:27:15 435.350 FM
ESTCUBE 1 21 Nov 22:30:14 22:34:40 65° 72° (ENE) 22:39:08 437.505/2401.250
PRISM 21 Nov 22:35:40 22:39:45 50° 100° (E) 22:43:48 437.425
AIST 2D 21 Nov 22:38:42 22:41:11 18° 92° (E) 22:43:38 435.315
nSIGHT-1 21 Nov 22:43:28 22:46:38 61° 344° (NNW) 22:49:51 .
PCSat 21 Nov 22:48:24 22:49:14 10° 101° (E) 22:50:06 145.827
VELOX 1 21 Nov 22:48:55 22:52:11 21° 61° (ENE) 22:55:29 145.980
FO-29 21 Nov 22:56:02 23:02:11 26° 307° (NW) 23:08:11 435.910
EO-79 21 Nov 23:05:05 23:07:15 14° 89° (E) 23:09:25 145.935-145.965
NANOSAT C BR1 21 Nov 23:08:00 23:09:59 13° 88° (E) 23:11:57 145.865
SO-50 21 Nov 23:15:15 23:19:27 38° 319° (NW) 23:23:42 436.795
POLYITAN 1 21 Nov 23:19:55 23:22:58 19° 92° (E) 23:26:00 437.675
UNISAT 6 21 Nov 23:26:07 23:29:19 21° 298° (WNW) 23:32:30 437.425
O/OREOS (USA 219) 21 Nov 23:26:59 23:31:22 47° 251° (WSW) 23:35:41 437.305
ISS 21 Nov 23:29:57 23:33:09 49° 353° (N) 23:36:21 437.550
TIGRISAT 21 Nov 23:30:17 23:33:27 21° 298° (WNW) 23:36:36 435.000
DX 1 21 Nov 23:32:57 23:35:28 15° 58° (ENE) 23:37:59 434.975-435.025
SPROUT 21 Nov 23:39:18 23:43:36 84° 73° (ENE) 23:47:54 437.525
RS-15 21 Nov 23:39:38 23:50:41 36° 2° (N) 00:01:20 29.354- 29.394
QB50P2 21 Nov 23:42:43 23:46:37 35° 97° (E) 23:50:28 145.880/145.840
LO-87 21 Nov 23:47:20 23:49:06 13° 270° (W) 23:50:53 145.935 - 145.965
50 SAT 21 Nov 23:48:14 23:50:09 15° 63° (ENE) 23:52:03 437.505
ESTCUBE 1 22 Nov 00:09:11 00:11:54 16° 271° (W) 00:14:39 437.505/2401.250
AIST 2D 22 Nov 00:11:13 00:14:28 35° 290° (WNW) 00:17:43 435.315
PRISM 22 Nov 00:11:43 00:14:41 19° 298° (WNW) 00:17:38 437.425
UKube-1 22 Nov 00:12:23 00:15:43 22° 62° (ENE) 00:19:05 .
Oscar 19 22 Nov 00:19:51 00:21:27 11° 85° (E) 00:23:04 437.125/150
nSIGHT-1 22 Nov 00:20:02 00:23:10 47° 5° (N) 00:26:17 .
VELOX 1 22 Nov 00:23:56 00:28:16 53° 260° (W) 00:32:39 145.980
PCSat 22 Nov 00:26:13 00:31:35 65° 120° (ESE) 00:36:58 145.827
DUCHIFAT 1 22 Nov 00:30:55 00:35:06 80° 102° (ESE) 00:39:15 145.980
EO-79 22 Nov 00:39:17 00:43:29 66° 287° (WNW) 00:47:37 145.935-145.965
NANOSAT C BR1 22 Nov 00:41:59 00:46:10 70° 286° (WNW) 00:50:18 145.865
Gurwin Techsat 1B 22 Nov 00:50:01 00:53:19 16° 88° (E) 00:56:35 435.225
POLYITAN 1 22 Nov 00:54:58 00:58:59 46° 290° (WNW) 01:02:59 437.675
SO-50 22 Nov 00:58:52 01:01:10 14° 342° (NNW) 01:03:29 436.795
ISS 22 Nov 01:06:41 01:09:56 58° 13° (NNE) 01:13:10 437.550
DX 1 22 Nov 01:06:43 01:11:04 76° 255° (WSW) 01:15:30 434.975-435.025
SPROUT 22 Nov 01:18:46 01:20:05 11° 273° (W) 01:21:24 437.525
QB50P2 22 Nov 01:18:46 01:22:15 26° 295° (WNW) 01:25:43 145.880/145.840
50 SAT 22 Nov 01:18:52 01:21:56 39° 261° (W) 01:25:02 437.505
BUGSAT 1 22 Nov 01:20:19 01:24:22 69° 103° (ESE) 01:28:22 437.445
BEESAT 22 Nov 01:25:38 01:29:13 22° 60° (ENE) 01:32:49 436.000
ITUPSAT 1 22 Nov 01:35:31 01:39:25 25° 62° (ENE) 01:43:19 437.325
MOZHAYETS 4 22 Nov 01:39:48 01:43:50 32° 66° (ENE) 01:47:51
UKube-1 22 Nov 01:47:19 01:51:28 45° 261° (W) 01:55:40 .
BEESAT 3 22 Nov 01:52:26 01:54:59 16° 113° (ESE) 01:57:32 437.485
RS-15 22 Nov 01:54:35 02:06:26 55° 35° (NE) 02:17:38 29.354- 29.394
CUBESAT XI-V 22 Nov 01:55:45 01:57:58 13° 56° (ENE) 02:00:11 437.345
nSIGHT-1 22 Nov 01:56:21 01:59:32 73° 206° (SSW) 02:02:43 .
Oscar 19 22 Nov 01:56:26 02:01:38 78° 105° (ESE) 02:06:48 437.125/150
AO-7 22 Nov 02:07:46 02:12:44 17° 86° (E) 02:17:41 .
DUCHIFAT 1 22 Nov 02:08:11 02:10:10 13° 302° (WNW) 02:12:09 145.980
PCSat 22 Nov 02:10:41 02:15:24 29° 321° (NW) 02:20:08 145.827
M-CUBED/EXP-1 PRIME 22 Nov 02:26:59 02:30:45 25° 99° (E) 02:34:35 437.505
Gurwin Techsat 1B 22 Nov 02:28:33 02:33:55 80° 287° (WNW) 02:39:13 435.225
SO-50 22 Nov 02:42:16 02:43:37 11° 8° (N) 02:44:59 436.795
ISS 22 Nov 02:43:16 02:46:22 41° 212° (SSW) 02:49:27 437.550
BUGSAT 1 22 Nov 02:57:04 02:59:13 14° 301° (WNW) 03:01:20 437.445
BEESAT 22 Nov 03:01:55 03:06:37 57° 259° (WSW) 03:11:21 436.000
BEESAT 2 22 Nov 03:05:01 03:08:24 26° 117° (ESE) 03:11:49 435.950
ITUPSAT 1 22 Nov 03:12:24 03:17:00 47° 261° (W) 03:21:38 437.325
MOZHAYETS 4 22 Nov 03:16:49 03:20:57 33° 264° (W) 03:25:05
KKS-1 22 Nov 03:25:36 03:29:10 24° 63° (ENE) 03:32:46 437.445
BEESAT 3 22 Nov 03:28:06 03:32:04 64° 311° (NW) 03:36:05 437.485
CUBESAT XI-V 22 Nov 03:30:01 03:34:37 88° 75° (ENE) 03:39:17 437.345
nSIGHT-1 22 Nov 03:33:27 03:35:19 15° 223° (SW) 03:37:12 .
Oscar 19 22 Nov 03:36:53 03:40:22 19° 303° (WNW) 03:43:52 437.125/150
STARS 22 Nov 03:47:52 03:50:49 18° 59° (ENE) 03:53:46 437.465
ITAMSAT 1 22 Nov 03:50:52 03:56:02 55° 101° (ESE) 04:01:07 435.822/435.867
PCSat 22 Nov 03:58:29 04:00:40 12° 346° (NNW) 04:02:51 145.827
AO-7 22 Nov 03:58:35 04:06:58 73° 107° (ESE) 04:15:19 .
M-CUBED/EXP-1 PRIME 22 Nov 04:00:56 04:05:15 46° 296° (WNW) 04:09:40 437.505
DOVE 4 22 Nov 04:06:44 04:10:16 18° 87° (E) 04:13:42 437.250
RS-15 22 Nov 04:07:41 04:19:20 64° 242° (WSW) 04:30:21 29.354- 29.394
Gurwin Techsat 1B 22 Nov 04:10:06 04:13:02 15° 306° (NW) 04:15:58 435.225
SO-50 22 Nov 04:22:05 04:25:45 23° 32° (NNE) 04:29:28 436.795
AO-85 22 Nov 04:31:33 04:35:26 69° 126° (SE) 04:39:32 145.980
YUBILEINY 22 Nov 04:35:23 04:43:01 35° 83° (E) 04:50:40 435.215
BEESAT 2 22 Nov 04:42:06 04:45:57 42° 316° (NW) 04:49:51 435.950
STRAND 1 22 Nov 04:51:19 04:53:24 12° 52° (NE) 04:55:29 437.568
KKS-1 22 Nov 05:01:11 05:05:30 45° 261° (W) 05:09:49 437.445
BEESAT 3 22 Nov 05:07:59 05:10:22 15° 332° (NNW) 05:12:46 437.485
XW-2B 22 Nov 05:10:31 05:11:49 11° 88° (E) 05:13:08 145.730 - 145.750
CUBESAT XI-V 22 Nov 05:10:56 05:12:40 12° 274° (W) 05:14:24 437.345
NUDT-PHONESAT 22 Nov 05:21:44 05:22:15 10° 88° (E) 05:22:46 437.300
STARS 22 Nov 05:22:18 05:26:42 64° 257° (WSW) 05:31:08 437.465
CUTE-I 22 Nov 05:30:40 05:34:35 20° 90° (E) 05:38:29 437.470
ITAMSAT 1 22 Nov 05:30:57 05:35:09 25° 300° (WNW) 05:39:19 435.822/435.867
XW-2C 22 Nov 05:34:48 05:37:47 21° 93° (E) 05:40:45 145.795 - 145.815
LilacSat-2 22 Nov 05:37:55 05:41:07 25° 94° (E) 05:44:20 437.200
